Time,TemperatureF,DewpointF,PressureIn,WindDirection,WindDirectionDegrees,WindSpeedMPH,WindSpeedGustMPH,Humidity,HourlyPrecipIn,Conditions,Clouds,dailyrainin,SoftwareType,DateUTC
2013-08-26 00:01:00,68.1,59.1,30.15,SSE,162,1.0,9.0,73,0.00,,,0.00,VWS V14.01,2013-08-26 04:01:00,
2013-08-26 00:06:00,68.3,59.7,30.15,SSW,209,2.0,6.0,74,0.00,,,0.00,VWS V14.01,2013-08-26 04:06:00,
2013-08-26 00:11:00,68.4,60.2,30.15,SW,226,1.0,8.0,75,0.00,,,0.00,VWS V14.01,2013-08-26 04:11:00,
2013-08-26 00:16:00,68.5,60.3,30.15,NNW,339,0.0,8.0,75,0.00,,,0.00,VWS V14.01,2013-08-26 04:16:00,
2013-08-26 00:21:00,68.5,60.6,30.14,SSW,194,0.0,8.0,76,0.00,,,0.00,VWS V14.01,2013-08-26 04:21:00,
2013-08-26 00:26:00,68.5,61.0,30.14,SW,219,1.0,8.0,77,0.00,,,0.00,VWS V14.01,2013-08-26 04:26:00,
2013-08-26 00:31:00,68.5,61.4,30.14,WSW,238,2.0,8.0,78,0.00,,,0.00,VWS V14.01,2013-08-26 04:31:00,
2013-08-26 00:36:00,68.6,61.8,30.15,SSW,202,2.0,8.0,79,0.00,,,0.00,VWS V14.01,2013-08-26 04:36:00,
2013-08-26 00:41:00,68.6,61.8,30.15,WSW,240,2.0,8.0,79,0.00,,,0.00,VWS V14.01,2013-08-26 04:41:00,
2013-08-26 00:46:00,68.6,61.8,30.14,WSW,250,1.0,8.0,79,0.00,,,0.00,VWS V14.01,2013-08-26 04:46:00,
2013-08-26 00:51:00,68.6,61.8,30.14,West,262,1.0,8.0,79,0.00,,,0.00,VWS V14.01,2013-08-26 04:51:00,
2013-08-26 00:56:00,68.5,61.7,30.14,WNW,297,0.0,8.0,79,0.00,,,0.00,VWS V14.01,2013-08-26 04:56:00,
2013-08-26 01:00:00,68.4,61.6,30.14,SSW,197,3.0,8.0,79,0.00,,,0.00,VWS V14.01,2013-08-26 05:00:00,
2013-08-26 01:01:00,68.5,61.7,30.14,NW,317,2.0,8.0,79,0.00,,,0.00,VWS V14.01,2013-08-26 05:01:00,
2013-08-26 01:06:00,68.4,61.6,30.14,South,169,3.0,4.0,79,0.00,,,0.00,VWS V14.01,2013-08-26 05:06:00,
2013-08-26 01:11:00,68.4,61.3,30.14,WSW,248,2.0,8.0,78,0.00,,,0.00,VWS V14.01,2013-08-26 05:11:00,
2013-08-26 01:16:00,68.3,60.8,30.14,WSW,240,0.0,8.0,77,0.00,,,0.00,VWS V14.01,2013-08-26 05:16:00,
2013-08-26 01:21:00,68.4,60.9,30.14,SW,218,3.0,8.0,77,0.00,,,0.00,VWS V14.01,2013-08-26 05:21:00,
2013-08-26 01:26:00,68.4,60.9,30.14,WSW,238,0.0,8.0,77,0.00,,,0.00,VWS V14.01,2013-08-26 05:26:00,
2013-08-26 01:31:00,68.4,60.9,30.14,WSW,242,0.0,8.0,77,0.00,,,0.00,VWS V14.01,2013-08-26 05:31:00,
2013-08-26 01:36:00,68.4,61.3,30.14,WNW,298,1.0,5.0,78,0.00,,,0.00,VWS V14.01,2013-08-26 05:36:00,
2013-08-26 01:41:00,68.4,61.3,30.14,SSW,200,0.0,7.0,78,0.00,,,0.00,VWS V14.01,2013-08-26 05:41:00,
2013-08-26 01:46:00,68.4,61.3,30.14,West,272,1.0,7.0,78,0.00,,,0.00,VWS V14.01,2013-08-26 05:46:00,
2013-08-26 01:51:00,68.3,61.5,30.14,South,175,0.0,7.0,79,0.00,,,0.00,VWS V14.01,2013-08-26 05:51:00,
2013-08-26 01:56:00,68.3,61.5,30.13,SSW,205,0.0,7.0,79,0.00,,,0.00,VWS V14.01,2013-08-26 05:56:00,
2013-08-26 02:00:00,68.3,61.5,30.13,South,175,2.0,7.0,79,0.00,,,0.00,VWS V14.01,2013-08-26 06:00:00,
2013-08-26 02:01:00,68.3,61.5,30.13,SSW,202,3.0,7.0,79,0.00,,,0.00,VWS V14.01,2013-08-26 06:01:00,
2013-08-26 02:06:00,68.3,61.9,30.13,SW,219,1.0,6.0,80,0.00,,,0.00,VWS V14.01,2013-08-26 06:06:00,
2013-08-26 02:11:00,68.4,62.0,30.13,South,184,2.0,6.0,80,0.00,,,0.00,VWS V14.01,2013-08-26 06:11:00,
2013-08-26 02:16:00,68.4,62.3,30.13,SSW,195,2.0,6.0,81,0.00,,,0.00,VWS V14.01,2013-08-26 06:16:00,
2013-08-26 02:21:00,68.3,62.2,30.12,WSW,237,0.0,6.0,81,0.00,,,0.00,VWS V14.01,2013-08-26 06:21:00,
2013-08-26 02:26:00,68.2,62.5,30.12,WSW,254,0.0,6.0,82,0.00,,,0.00,VWS V14.01,2013-08-26 06:26:00,
2013-08-26 02:30:00,68.2,62.5,30.12,SW,223,0.0,6.0,82,0.00,,,0.00,VWS V14.01,2013-08-26 06:30:00,
2013-08-26 02:31:00,68.2,62.5,30.12,SW,223,1.0,6.0,82,0.00,,,0.00,VWS V14.01,2013-08-26 06:31:00,
2013-08-26 02:36:00,68.2,62.5,30.12,WNW,292,2.0,6.0,82,0.00,,,0.00,VWS V14.01,2013-08-26 06:36:00,
2013-08-26 02:41:00,68.2,62.8,30.12,WNW,294,4.0,6.0,83,0.00,,,0.00,VWS V14.01,2013-08-26 06:41:00,
2013-08-26 02:46:00,68.2,62.8,30.12,SW,223,1.0,6.0,83,0.00,,,0.00,VWS V14.01,2013-08-26 06:46:00,
2013-08-26 02:51:00,68.1,62.8,30.12,SW,222,0.0,6.0,83,0.00,,,0.00,VWS V14.01,2013-08-26 06:51:00,
2013-08-26 02:56:00,68.1,62.8,30.12,SW,222,1.0,6.0,83,0.00,,,0.00,VWS V14.01,2013-08-26 06:56:00,
2013-08-26 03:00:00,68.0,62.7,30.12,SW,231,0.0,6.0,83,0.00,,,0.00,VWS V14.01,2013-08-26 07:00:00,
2013-08-26 03:01:00,68.1,62.8,30.12,SW,231,0.0,6.0,83,0.00,,,0.00,VWS V14.01,2013-08-26 07:01:00,
2013-08-26 03:06:00,68.0,62.7,30.11,WSW,237,0.0,4.0,83,0.00,,,0.00,VWS V14.01,2013-08-26 07:06:00,
2013-08-26 03:11:00,68.0,63.0,30.11,South,187,2.0,5.0,84,0.00,,,0.00,VWS V14.01,2013-08-26 07:11:00,
2013-08-26 03:16:00,68.0,63.0,30.11,SW,233,1.0,5.0,84,0.00,,,0.00,VWS V14.01,2013-08-26 07:16:00,
2013-08-26 03:21:00,68.0,63.0,30.11,SW,215,1.0,5.0,84,0.00,,,0.00,VWS V14.01,2013-08-26 07:21:00,
2013-08-26 03:26:00,67.9,62.9,30.11,SSW,208,0.0,5.0,84,0.00,,,0.00,VWS V14.01,2013-08-26 07:26:00,
2013-08-26 03:31:00,67.9,62.9,30.10,SSW,206,0.0,7.0,84,0.00,,,0.00,VWS V14.01,2013-08-26 07:31:00,
2013-08-26 03:36:00,67.9,62.9,30.10,SSW,211,2.0,3.0,84,0.00,,,0.00,VWS V14.01,2013-08-26 07:36:00,
2013-08-26 03:41:00,67.8,62.8,30.10,South,187,2.0,4.0,84,0.00,,,0.00,VWS V14.01,2013-08-26 07:41:00,
2013-08-26 03:46:00,67.8,63.1,30.10,South,187,0.0,4.0,85,0.00,,,0.00,VWS V14.01,2013-08-26 07:46:00,
2013-08-26 03:51:00,67.7,63.0,30.10,SW,223,2.0,4.0,85,0.00,,,0.00,VWS V14.01,2013-08-26 07:51:00,
2013-08-26 03:56:00,67.7,63.0,30.09,SW,225,3.0,4.0,85,0.00,,,0.00,VWS V14.01,2013-08-26 07:56:00,
2013-08-26 04:01:00,67.7,63.0,30.09,SSW,207,0.0,4.0,85,0.00,,,0.00,VWS V14.01,2013-08-26 08:01:00,
2013-08-26 04:06:00,67.7,63.0,30.09,SW,214,0.0,3.0,85,0.00,,,0.00,VWS V14.01,2013-08-26 08:06:00,
2013-08-26 04:11:00,67.7,63.0,30.09,SW,236,0.0,5.0,85,0.00,,,0.00,VWS V14.01,2013-08-26 08:11:00,
2013-08-26 04:16:00,67.8,63.1,30.09,SW,215,3.0,5.0,85,0.00,,,0.00,VWS V14.01,2013-08-26 08:16:00,
2013-08-26 04:21:00,67.8,63.1,30.09,SSW,197,1.0,5.0,85,0.00,,,0.00,VWS V14.01,2013-08-26 08:21:00,
2013-08-26 04:26:00,67.9,63.2,30.09,SW,236,0.0,5.0,85,0.00,,,0.00,VWS V14.01,2013-08-26 08:26:00,
2013-08-26 04:31:00,67.9,62.9,30.09,SSW,208,0.0,5.0,84,0.00,,,0.00,VWS V14.01,2013-08-26 08:31:00,
2013-08-26 04:36:00,68.0,63.0,30.09,SW,215,1.0,7.0,84,0.00,,,0.00,VWS V14.01,2013-08-26 08:36:00,
2013-08-26 04:41:00,68.1,63.1,30.09,SW,227,1.0,7.0,84,0.00,,,0.00,VWS V14.01,2013-08-26 08:41:00,
2013-08-26 04:46:00,68.2,63.2,30.08,SW,227,1.0,7.0,84,0.00,,,0.00,VWS V14.01,2013-08-26 08:46:00,
2013-08-26 04:51:00,68.2,63.2,30.08,SW,227,0.0,7.0,84,0.00,,,0.00,VWS V14.01,2013-08-26 08:51:00,
2013-08-26 04:56:00,68.2,63.2,30.08,SW,234,3.0,7.0,84,0.00,,,0.00,VWS V14.01,2013-08-26 08:56:00,
2013-08-26 05:00:00,68.2,63.2,30.08,SW,219,1.0,7.0,84,0.00,,,0.00,VWS V14.01,2013-08-26 09:00:00,
2013-08-26 05:01:00,68.2,63.2,30.08,SW,219,0.0,7.0,84,0.00,,,0.00,VWS V14.01,2013-08-26 09:01:00,
2013-08-26 05:06:00,68.2,62.8,30.08,SW,219,0.0,5.0,83,0.00,,,0.00,VWS V14.01,2013-08-26 09:06:00,
2013-08-26 05:11:00,68.3,62.9,30.08,SSW,213,1.0,8.0,83,0.00,,,0.00,VWS V14.01,2013-08-26 09:11:00,
2013-08-26 05:16:00,68.3,62.9,30.08,SW,221,0.0,8.0,83,0.00,,,0.00,VWS V14.01,2013-08-26 09:16:00,
2013-08-26 05:21:00,68.3,62.9,30.08,SSW,208,0.0,8.0,83,0.00,,,0.00,VWS V14.01,2013-08-26 09:21:00,
2013-08-26 05:26:00,68.2,62.8,30.08,SSW,208,0.0,8.0,83,0.00,,,0.00,VWS V14.01,2013-08-26 09:26:00,
2013-08-26 05:30:00,68.2,63.2,30.08,East,95,0.0,8.0,84,0.00,,,0.00,VWS V14.01,2013-08-26 09:30:00,
2013-08-26 05:31:00,68.2,62.8,30.08,East,95,0.0,8.0,83,0.00,,,0.00,VWS V14.01,2013-08-26 09:31:00,
2013-08-26 05:36:00,68.2,63.2,30.08,ESE,121,0.0,3.0,84,0.00,,,0.00,VWS V14.01,2013-08-26 09:36:00,
2013-08-26 05:41:00,68.2,63.2,30.08,SSW,202,1.0,3.0,84,0.00,,,0.00,VWS V14.01,2013-08-26 09:41:00,
2013-08-26 05:46:00,68.1,63.1,30.08,SSW,207,5.0,5.0,84,0.00,,,0.00,VWS V14.01,2013-08-26 09:46:00,
2013-08-26 05:51:00,68.2,63.2,30.08,WSW,258,1.0,5.0,84,0.00,,,0.00,VWS V14.01,2013-08-26 09:51:00,
2013-08-26 05:56:00,68.2,63.2,30.08,South,173,4.0,5.0,84,0.00,,,0.00,VWS V14.01,2013-08-26 09:56:00,
2013-08-26 06:00:00,68.1,63.1,30.08,South,189,1.0,5.0,84,0.00,,,0.00,VWS V14.01,2013-08-26 10:00:00,
2013-08-26 06:01:00,68.1,63.1,30.08,SSW,198,0.0,5.0,84,0.00,,,0.00,VWS V14.01,2013-08-26 10:01:00,
2013-08-26 06:06:00,68.1,63.1,30.08,WSW,248,3.0,5.0,84,0.00,,,0.00,VWS V14.01,2013-08-26 10:06:00,
2013-08-26 06:11:00,68.1,63.4,30.08,SW,216,1.0,5.0,85,0.00,,,0.00,VWS V14.01,2013-08-26 10:11:00,
2013-08-26 06:16:00,68.1,63.4,30.08,SW,217,0.0,5.0,85,0.00,,,0.00,VWS V14.01,2013-08-26 10:16:00,
2013-08-26 06:21:00,68.0,63.3,30.07,SSW,201,0.0,6.0,85,0.00,,,0.00,VWS V14.01,2013-08-26 10:21:00,
2013-08-26 06:26:00,68.0,63.3,30.07,SW,217,0.0,6.0,85,0.00,,,0.00,VWS V14.01,2013-08-26 10:26:00,
2013-08-26 06:31:00,68.0,63.7,30.07,SW,224,0.0,6.0,86,0.00,,,0.00,VWS V14.01,2013-08-26 10:31:00,
2013-08-26 06:36:00,68.0,63.7,30.07,SW,225,1.0,2.0,86,0.00,,,0.00,VWS V14.01,2013-08-26 10:36:00,
2013-08-26 06:41:00,68.0,63.7,30.07,WSW,241,0.0,2.0,86,0.00,,,0.00,VWS V14.01,2013-08-26 10:41:00,
2013-08-26 06:46:00,68.0,63.7,30.07,SSE,163,0.0,5.0,86,0.00,,,0.00,VWS V14.01,2013-08-26 10:46:00,
2013-08-26 06:51:00,68.0,63.7,30.07,South,188,0.0,5.0,86,0.00,,,0.00,VWS V14.01,2013-08-26 10:51:00,
2013-08-26 06:56:00,68.1,63.8,30.06,SSW,202,0.0,5.0,86,0.00,,,0.00,VWS V14.01,2013-08-26 10:56:00,
2013-08-26 07:01:00,68.1,63.8,30.06,SW,225,0.0,5.0,86,0.00,,,0.00,VWS V14.01,2013-08-26 11:01:00,
2013-08-26 07:06:00,68.3,64.0,30.06,SW,224,3.0,8.0,86,0.00,,,0.00,VWS V14.01,2013-08-26 11:06:00,
2013-08-26 07:11:00,68.4,63.7,30.06,SW,216,4.0,8.0,85,0.00,,,0.00,VWS V14.01,2013-08-26 11:11:00,
2013-08-26 07:16:00,68.6,64.2,30.06,SSW,213,4.0,8.0,86,0.00,,,0.00,VWS V14.01,2013-08-26 11:16:00,
2013-08-26 07:21:00,68.8,64.1,30.06,SE,132,2.0,8.0,85,0.00,,,0.00,VWS V14.01,2013-08-26 11:21:00,
2013-08-26 07:26:00,69.0,64.3,30.06,South,190,2.0,8.0,85,0.00,,,0.00,VWS V14.01,2013-08-26 11:26:00,
2013-08-26 07:30:00,69.2,64.2,30.06,SW,224,3.0,8.0,84,0.00,,,0.00,VWS V14.01,2013-08-26 11:30:00,
2013-08-26 07:31:00,69.1,64.1,30.06,SW,218,1.0,8.0,84,0.00,,,0.00,VWS V14.01,2013-08-26 11:31:00,
2013-08-26 07:36:00,69.2,64.2,30.05,SSW,203,3.0,6.0,84,0.00,,,0.00,VWS V14.01,2013-08-26 11:36:00,
2013-08-26 07:41:00,69.3,64.3,30.05,SE,136,1.0,7.0,84,0.00,,,0.00,VWS V14.01,2013-08-26 11:41:00,
2013-08-26 07:46:00,69.3,64.3,30.05,SSW,199,2.0,8.0,84,0.00,,,0.00,VWS V14.01,2013-08-26 11:46:00,
2013-08-26 07:51:00,69.4,64.4,30.05,WSW,242,0.0,8.0,84,0.00,,,0.00,VWS V14.01,2013-08-26 11:51:00,
2013-08-26 07:56:00,69.5,64.5,30.04,SW,226,1.0,8.0,84,0.00,,,0.00,VWS V14.01,2013-08-26 11:56:00,
2013-08-26 08:00:00,69.6,64.2,30.05,SW,236,1.0,8.0,83,0.00,,,0.00,VWS V14.01,2013-08-26 12:00:00,
2013-08-26 08:01:00,69.6,64.2,30.04,South,186,0.0,8.0,83,0.00,,,0.00,VWS V14.01,2013-08-26 12:01:00,
2013-08-26 08:06:00,69.6,63.9,30.05,SW,231,1.0,9.0,82,0.00,,,0.00,VWS V14.01,2013-08-26 12:06:00,
2013-08-26 08:11:00,69.7,64.0,30.04,SSE,161,2.0,9.0,82,0.00,,,0.00,VWS V14.01,2013-08-26 12:11:00,
2013-08-26 08:16:00,69.7,64.0,30.04,SW,235,0.0,9.0,82,0.00,,,0.00,VWS V14.01,2013-08-26 12:16:00,
2013-08-26 08:21:00,69.8,64.1,30.05,SW,219,0.0,9.0,82,0.00,,,0.00,VWS V14.01,2013-08-26 12:21:00,
2013-08-26 08:26:00,69.9,63.8,30.05,SSW,202,2.0,9.0,81,0.00,,,0.00,VWS V14.01,2013-08-26 12:26:00,
2013-08-26 08:30:00,69.8,63.7,30.05,SW,223,3.0,9.0,81,0.00,,,0.00,VWS V14.01,2013-08-26 12:30:00,
2013-08-26 08:31:00,69.8,63.7,30.05,South,171,4.0,9.0,81,0.00,,,0.00,VWS V14.01,2013-08-26 12:31:00,
2013-08-26 08:36:00,69.9,63.8,30.05,South,185,1.0,3.0,81,0.00,,,0.00,VWS V14.01,2013-08-26 12:36:00,
2013-08-26 08:41:00,69.9,63.8,30.05,NNE,18,1.0,9.0,81,0.00,,,0.00,VWS V14.01,2013-08-26 12:41:00,
2013-08-26 08:46:00,69.9,63.8,30.05,SW,231,1.0,9.0,81,0.00,,,0.00,VWS V14.01,2013-08-26 12:46:00,
2013-08-26 08:51:00,69.9,63.5,30.05,SSW,194,0.0,9.0,80,0.00,,,0.00,VWS V14.01,2013-08-26 12:51:00,
2013-08-26 08:56:00,70.0,63.5,30.05,WSW,242,0.0,9.0,80,0.00,,,0.00,VWS V14.01,2013-08-26 12:56:00,
2013-08-26 09:00:00,70.1,63.3,30.05,SSW,208,1.0,9.0,79,0.00,,,0.00,VWS V14.01,2013-08-26 13:00:00,
2013-08-26 09:01:00,70.1,63.3,30.05,SSW,208,0.0,9.0,79,0.00,,,0.00,VWS V14.01,2013-08-26 13:01:00,
2013-08-26 09:06:00,70.2,63.4,30.04,SW,216,1.0,4.0,79,0.00,,,0.00,VWS V14.01,2013-08-26 13:06:00,
2013-08-26 09:11:00,70.3,63.1,30.04,SW,234,1.0,6.0,78,0.00,,,0.00,VWS V14.01,2013-08-26 13:11:00,
2013-08-26 09:16:00,70.5,63.3,30.04,South,190,1.0,6.0,78,0.00,,,0.00,VWS V14.01,2013-08-26 13:16:00,
2013-08-26 09:21:00,70.5,63.0,30.04,WSW,248,2.0,7.0,77,0.00,,,0.00,VWS V14.01,2013-08-26 13:21:00,
2013-08-26 09:26:00,70.7,63.5,30.04,SE,139,0.0,7.0,78,0.00,,,0.00,VWS V14.01,2013-08-26 13:26:00,
2013-08-26 09:30:00,70.7,63.1,30.04,SW,227,6.0,7.0,77,0.00,,,0.00,VWS V14.01,2013-08-26 13:30:00,
2013-08-26 09:31:00,70.7,63.1,30.03,ESE,123,1.0,7.0,77,0.00,,,0.00,VWS V14.01,2013-08-26 13:31:00,
2013-08-26 09:36:00,70.7,63.1,30.04,SSW,206,1.0,6.0,77,0.00,,,0.00,VWS V14.01,2013-08-26 13:36:00,
2013-08-26 09:41:00,70.8,63.2,30.03,SSW,205,2.0,7.0,77,0.00,,,0.00,VWS V14.01,2013-08-26 13:41:00,
2013-08-26 09:46:00,71.0,63.4,30.03,SW,226,4.0,14.0,77,0.00,,,0.00,VWS V14.01,2013-08-26 13:46:00,
2013-08-26 09:51:00,71.2,63.6,30.03,SSW,209,3.0,14.0,77,0.00,,,0.00,VWS V14.01,2013-08-26 13:51:00,
2013-08-26 09:56:00,71.1,63.2,30.03,SW,223,3.0,14.0,76,0.00,,,0.00,VWS V14.01,2013-08-26 13:56:00,
2013-08-26 10:01:00,71.0,63.4,30.03,SSE,164,2.0,14.0,77,0.00,,,0.00,VWS V14.01,2013-08-26 14:01:00,
2013-08-26 10:06:00,71.1,63.5,30.03,SSW,196,0.0,4.0,77,0.00,,,0.00,VWS V14.01,2013-08-26 14:06:00,
2013-08-26 10:11:00,71.1,63.5,30.02,SW,223,1.0,7.0,77,0.00,,,0.00,VWS V14.01,2013-08-26 14:11:00,
2013-08-26 10:16:00,71.0,63.4,30.03,SSW,192,1.0,7.0,77,0.00,,,0.00,VWS V14.01,2013-08-26 14:16:00,
2013-08-26 10:21:00,71.0,63.8,30.02,SSW,196,0.0,7.0,78,0.00,,,0.00,VWS V14.01,2013-08-26 14:21:00,
2013-08-26 10:26:00,71.2,64.0,30.02,SSE,164,0.0,7.0,78,0.00,,,0.00,VWS V14.01,2013-08-26 14:26:00,
2013-08-26 10:31:00,71.4,63.8,30.01,SSE,151,1.0,7.0,77,0.00,,,0.00,VWS V14.01,2013-08-26 14:31:00,
2013-08-26 10:36:00,71.3,64.1,30.01,SSW,197,1.0,7.0,78,0.00,,,0.00,VWS V14.01,2013-08-26 14:36:00,
2013-08-26 10:41:00,71.3,64.1,30.02,NW,304,2.0,7.0,78,0.00,,,0.00,VWS V14.01,2013-08-26 14:41:00,
2013-08-26 10:46:00,71.4,64.2,30.01,WSW,250,0.0,7.0,78,0.00,,,0.00,VWS V14.01,2013-08-26 14:46:00,
2013-08-26 10:51:00,71.6,64.4,30.01,SSW,192,3.0,7.0,78,0.00,,,0.00,VWS V14.01,2013-08-26 14:51:00,
2013-08-26 10:56:00,71.6,64.4,30.01,WSW,239,4.0,9.0,78,0.00,,,0.00,VWS V14.01,2013-08-26 14:56:00,
2013-08-26 11:00:00,71.6,64.4,30.01,SSW,196,2.0,9.0,78,0.00,,,0.00,VWS V14.01,2013-08-26 15:00:00,
2013-08-26 11:01:00,71.6,64.4,30.01,SSW,200,1.0,9.0,78,0.00,,,0.00,VWS V14.01,2013-08-26 15:01:00,
2013-08-26 11:06:00,71.9,64.7,30.00,South,184,0.0,6.0,78,0.00,,,0.00,VWS V14.01,2013-08-26 15:06:00,
2013-08-26 11:11:00,72.5,65.3,30.00,SW,220,1.0,6.0,78,0.00,,,0.00,VWS V14.01,2013-08-26 15:11:00,
2013-08-26 11:16:00,73.0,65.4,29.99,South,183,1.0,9.0,77,0.00,,,0.00,VWS V14.01,2013-08-26 15:16:00,
2013-08-26 11:21:00,73.3,65.7,29.99,SE,140,1.0,9.0,77,0.00,,,0.00,VWS V14.01,2013-08-26 15:21:00,
2013-08-26 11:26:00,73.4,65.8,29.99,SSE,148,3.0,9.0,77,0.00,,,0.00,VWS V14.01,2013-08-26 15:26:00,
2013-08-26 11:30:00,73.2,65.6,29.99,SSW,210,3.0,15.0,77,0.00,,,0.00,VWS V14.01,2013-08-26 15:30:00,
2013-08-26 11:31:00,73.4,65.8,29.99,ENE,67,2.0,9.0,77,0.00,,,0.00,VWS V14.01,2013-08-26 15:31:00,
2013-08-26 11:36:00,73.2,65.6,29.99,SW,219,3.0,10.0,77,0.00,,,0.00,VWS V14.01,2013-08-26 15:36:00,
2013-08-26 11:41:00,72.9,65.3,29.99,South,179,3.0,10.0,77,0.00,,,0.00,VWS V14.01,2013-08-26 15:41:00,
2013-08-26 11:46:00,72.3,64.7,29.98,SSW,203,8.0,10.0,77,0.00,,,0.00,VWS V14.01,2013-08-26 15:46:00,
2013-08-26 11:51:00,71.9,65.0,29.98,SW,225,3.0,11.0,79,0.00,,,0.00,VWS V14.01,2013-08-26 15:51:00,
2013-08-26 11:56:00,71.7,64.8,29.97,SSW,200,2.0,11.0,79,0.00,,,0.00,VWS V14.01,2013-08-26 15:56:00,
2013-08-26 12:00:00,71.8,64.9,29.97,SSW,199,2.0,11.0,79,0.00,,,0.00,VWS V14.01,2013-08-26 16:00:00,
2013-08-26 12:01:00,71.7,64.8,29.97,South,191,2.0,11.0,79,0.00,,,0.00,VWS V14.01,2013-08-26 16:01:00,
2013-08-26 12:06:00,72.2,65.7,29.97,SSW,199,4.0,8.0,80,0.00,,,0.00,VWS V14.01,2013-08-26 16:06:00,
2013-08-26 12:11:00,72.6,66.1,29.97,South,180,2.0,8.0,80,0.00,,,0.00,VWS V14.01,2013-08-26 16:11:00,
2013-08-26 12:16:00,72.6,66.1,29.97,SSW,193,3.0,11.0,80,0.00,,,0.00,VWS V14.01,2013-08-26 16:16:00,
2013-08-26 12:21:00,72.7,66.5,29.97,SE,144,5.0,12.0,81,0.00,,,0.00,VWS V14.01,2013-08-26 16:21:00,
2013-08-26 12:26:00,73.1,66.6,29.96,SSE,157,6.0,12.0,80,0.00,,,0.00,VWS V14.01,2013-08-26 16:26:00,
2013-08-26 12:30:00,73.9,67.0,29.96,SW,220,3.0,12.0,79,0.00,,,0.00,VWS V14.01,2013-08-26 16:30:00,
2013-08-26 12:31:00,73.6,66.7,29.96,South,185,2.0,12.0,79,0.00,,,0.00,VWS V14.01,2013-08-26 16:31:00,
2013-08-26 12:36:00,74.3,66.6,29.96,SW,224,1.0,11.0,77,0.00,,,0.00,VWS V14.01,2013-08-26 16:36:00,
2013-08-26 12:41:00,74.8,66.7,29.96,WSW,256,7.0,13.0,76,0.00,,,0.00,VWS V14.01,2013-08-26 16:41:00,
2013-08-26 12:46:00,75.3,66.1,29.96,SSE,148,2.0,13.0,73,0.00,,,0.00,VWS V14.01,2013-08-26 16:46:00,
2013-08-26 12:51:00,75.5,66.2,29.96,SE,136,4.0,13.0,73,0.00,,,0.00,VWS V14.01,2013-08-26 16:51:00,
2013-08-26 12:56:00,75.8,66.1,29.96,South,186,2.0,13.0,72,0.00,,,0.00,VWS V14.01,2013-08-26 16:56:00,
2013-08-26 13:00:00,75.7,65.6,29.96,WSW,237,4.0,13.0,71,0.00,,,0.00,VWS V14.01,2013-08-26 17:00:00,
2013-08-26 13:01:00,75.9,65.4,29.96,SSW,200,8.0,13.0,70,0.00,,,0.00,VWS V14.01,2013-08-26 17:01:00,
2013-08-26 13:06:00,75.2,65.6,29.95,South,172,1.0,11.0,72,0.00,,,0.00,VWS V14.01,2013-08-26 17:06:00,
2013-08-26 13:11:00,75.1,66.2,29.95,SSW,193,4.0,11.0,74,0.00,,,0.00,VWS V14.01,2013-08-26 17:11:00,
2013-08-26 13:16:00,74.3,65.5,29.95,SE,141,5.0,12.0,74,0.00,,,0.00,VWS V14.01,2013-08-26 17:16:00,
2013-08-26 13:21:00,73.9,65.9,29.95,SE,144,2.0,12.0,76,0.00,,,0.00,VWS V14.01,2013-08-26 17:21:00,
2013-08-26 13:26:00,73.8,66.2,29.95,SW,214,2.0,12.0,77,0.00,,,0.00,VWS V14.01,2013-08-26 17:26:00,
2013-08-26 13:30:00,73.8,66.2,29.94,South,176,3.0,12.0,77,0.00,,,0.00,VWS V14.01,2013-08-26 17:30:00,
2013-08-26 13:35:00,73.7,66.4,29.94,SSE,159,11.0,11.0,78,0.00,,,0.00,VWS V14.01,2013-08-26 17:35:00,
2013-08-26 13:40:00,74.1,66.4,29.94,SE,140,2.0,11.0,77,0.00,,,0.00,VWS V14.01,2013-08-26 17:40:00,
2013-08-26 13:45:00,75.1,66.6,29.93,SSW,202,2.0,11.0,75,0.00,,,0.00,VWS V14.01,2013-08-26 17:45:00,
2013-08-26 13:50:00,75.6,67.1,29.93,SSW,207,5.0,11.0,75,0.00,,,0.00,VWS V14.01,2013-08-26 17:50:00,
2013-08-26 13:55:00,76.0,67.1,29.93,SSW,211,3.0,11.0,74,0.00,,,0.00,VWS V14.01,2013-08-26 17:55:00,
2013-08-26 14:00:00,76.1,67.2,29.93,SSE,150,3.0,11.0,74,0.00,,,0.00,VWS V14.01,2013-08-26 18:00:00,
2013-08-26 14:05:00,76.0,67.1,29.92,SE,142,5.0,7.0,74,0.00,,,0.00,VWS V14.01,2013-08-26 18:05:00,
2013-08-26 14:10:00,76.3,67.4,29.92,South,180,7.0,8.0,74,0.00,,,0.00,VWS V14.01,2013-08-26 18:10:00,
2013-08-26 14:15:00,76.4,67.5,29.92,SSW,207,4.0,9.0,74,0.00,,,0.00,VWS V14.01,2013-08-26 18:15:00,
2013-08-26 14:20:00,76.4,67.5,29.92,South,180,4.0,9.0,74,0.00,,,0.00,VWS V14.01,2013-08-26 18:20:00,
2013-08-26 14:25:00,75.9,67.4,29.92,South,180,2.0,12.0,75,0.00,,,0.00,VWS V14.01,2013-08-26 18:25:00,
2013-08-26 14:30:00,74.8,66.7,29.92,SSW,211,3.0,12.0,76,0.00,,,0.00,VWS V14.01,2013-08-26 18:30:00,
2013-08-26 14:35:00,74.2,66.5,29.91,NW,313,7.0,11.0,77,0.00,,,0.00,VWS V14.01,2013-08-26 18:35:00,
2013-08-26 14:40:00,73.8,66.5,29.91,SSE,152,2.0,11.0,78,0.00,,,0.00,VWS V14.01,2013-08-26 18:40:00,
2013-08-26 14:45:00,73.5,66.6,29.91,WSW,258,4.0,11.0,79,0.00,,,0.00,VWS V14.01,2013-08-26 18:45:00,
2013-08-26 14:50:00,73.3,66.8,29.91,West,261,5.0,11.0,80,0.00,,,0.00,VWS V14.01,2013-08-26 18:50:00,
2013-08-26 14:55:00,73.4,66.9,29.91,SSW,199,2.0,11.0,80,0.00,,,0.00,VWS V14.01,2013-08-26 18:55:00,
2013-08-26 15:00:00,73.6,67.1,29.90,South,170,7.0,11.0,80,0.00,,,0.00,VWS V14.01,2013-08-26 19:00:00,
2013-08-26 15:05:00,73.6,67.1,29.91,SW,219,7.0,11.0,80,0.00,,,0.00,VWS V14.01,2013-08-26 19:05:00,
2013-08-26 15:10:00,74.0,67.4,29.90,South,182,3.0,11.0,80,0.00,,,0.00,VWS V14.01,2013-08-26 19:10:00,
2013-08-26 15:15:00,73.9,67.0,29.90,West,269,2.0,12.0,79,0.00,,,0.00,VWS V14.01,2013-08-26 19:15:00,
2013-08-26 15:20:00,73.9,67.0,29.90,West,267,11.0,12.0,79,0.00,,,0.00,VWS V14.01,2013-08-26 19:20:00,
2013-08-26 15:25:00,74.0,67.4,29.90,SSE,165,2.0,12.0,80,0.00,,,0.00,VWS V14.01,2013-08-26 19:25:00,
2013-08-26 15:30:00,73.7,67.2,29.90,SW,230,4.0,12.0,80,0.00,,,0.00,VWS V14.01,2013-08-26 19:30:00,
2013-08-26 15:35:00,73.4,67.2,29.90,SE,134,2.0,9.0,81,0.00,,,0.00,VWS V14.01,2013-08-26 19:35:00,
2013-08-26 15:40:00,73.0,67.2,29.89,SSE,153,1.0,13.0,82,0.00,,,0.00,VWS V14.01,2013-08-26 19:40:00,
2013-08-26 15:45:00,72.6,67.2,29.89,West,276,9.0,13.0,83,0.00,,,0.00,VWS V14.01,2013-08-26 19:45:00,
2013-08-26 15:50:00,72.3,67.2,29.89,SW,224,7.0,13.0,84,0.00,,,0.00,VWS V14.01,2013-08-26 19:50:00,
2013-08-26 15:55:00,72.3,67.2,29.89,South,188,5.0,13.0,84,0.00,,,0.00,VWS V14.01,2013-08-26 19:55:00,
2013-08-26 16:00:00,72.1,67.0,29.88,SSE,160,4.0,14.0,84,0.00,,,0.00,VWS V14.01,2013-08-26 20:00:00,
2013-08-26 16:05:00,72.0,67.2,29.88,SSE,149,7.0,10.0,85,0.00,,,0.00,VWS V14.01,2013-08-26 20:05:00,
2013-08-26 16:10:00,71.8,67.4,29.88,South,170,3.0,12.0,86,0.00,,,0.00,VWS V14.01,2013-08-26 20:10:00,
2013-08-26 16:15:00,71.9,67.5,29.88,SE,133,5.0,12.0,86,0.00,,,0.00,VWS V14.01,2013-08-26 20:15:00,
2013-08-26 16:20:00,72.2,67.8,29.88,SSW,196,5.0,12.0,86,0.00,,,0.00,VWS V14.01,2013-08-26 20:20:00,
2013-08-26 16:25:00,72.6,67.8,29.88,South,176,4.0,12.0,85,0.00,,,0.00,VWS V14.01,2013-08-26 20:25:00,
2013-08-26 16:30:00,72.6,67.5,29.88,South,182,1.0,12.0,84,0.00,,,0.00,VWS V14.01,2013-08-26 20:30:00,
2013-08-26 16:35:00,72.5,67.4,29.88,SE,125,2.0,12.0,84,0.00,,,0.00,VWS V14.01,2013-08-26 20:35:00,
2013-08-26 16:40:00,72.3,67.2,29.87,South,170,2.0,12.0,84,0.00,,,0.00,VWS V14.01,2013-08-26 20:40:00,
2013-08-26 16:45:00,72.3,67.5,29.87,South,177,4.0,12.0,85,0.00,,,0.00,VWS V14.01,2013-08-26 20:45:00,
2013-08-26 16:50:00,72.3,67.5,29.87,SE,140,4.0,12.0,85,0.00,,,0.00,VWS V14.01,2013-08-26 20:50:00,
2013-08-26 16:55:00,72.3,67.5,29.87,South,174,1.0,12.0,85,0.00,,,0.00,VWS V14.01,2013-08-26 20:55:00,
2013-08-26 17:00:00,72.5,67.7,29.87,SSE,165,3.0,12.0,85,0.00,,,0.00,VWS V14.01,2013-08-26 21:00:00,
2013-08-26 17:05:00,72.7,67.6,29.87,South,175,2.0,7.0,84,0.00,,,0.00,VWS V14.01,2013-08-26 21:05:00,
2013-08-26 17:10:00,72.8,67.3,29.87,East,90,3.0,9.0,83,0.00,,,0.00,VWS V14.01,2013-08-26 21:10:00,
2013-08-26 17:15:00,72.6,67.5,29.87,SW,235,1.0,9.0,84,0.00,,,0.00,VWS V14.01,2013-08-26 21:15:00,
2013-08-26 17:20:00,72.7,67.2,29.87,SW,216,5.0,9.0,83,0.00,,,0.00,VWS V14.01,2013-08-26 21:20:00,
2013-08-26 17:25:00,72.7,67.2,29.87,SW,225,3.0,9.0,83,0.00,,,0.00,VWS V14.01,2013-08-26 21:25:00,
2013-08-26 17:30:00,72.6,67.5,29.87,WSW,252,2.0,9.0,84,0.00,,,0.00,VWS V14.01,2013-08-26 21:30:00,
2013-08-26 17:35:00,72.4,67.3,29.87,SSE,167,4.0,6.0,84,0.00,,,0.00,VWS V14.01,2013-08-26 21:35:00,
2013-08-26 17:40:00,72.2,67.1,29.87,South,180,5.0,8.0,84,0.00,,,0.00,VWS V14.01,2013-08-26 21:40:00,
2013-08-26 17:45:00,72.1,67.0,29.87,SSW,209,1.0,8.0,84,0.00,,,0.00,VWS V14.01,2013-08-26 21:45:00,
2013-08-26 17:50:00,72.1,67.3,29.87,SE,127,3.0,8.0,85,0.00,,,0.00,VWS V14.01,2013-08-26 21:50:00,
2013-08-26 17:55:00,72.0,67.2,29.87,SSE,164,4.0,9.0,85,0.00,,,0.00,VWS V14.01,2013-08-26 21:55:00,
2013-08-26 18:00:00,71.9,67.5,29.86,South,188,2.0,9.0,86,0.00,,,0.00,VWS V14.01,2013-08-26 22:00:00,
2013-08-26 18:05:00,71.8,67.4,29.86,SSW,203,3.0,8.0,86,0.00,,,0.00,VWS V14.01,2013-08-26 22:05:00,
2013-08-26 18:10:00,71.7,67.3,29.86,SSW,203,0.0,8.0,86,0.00,,,0.00,VWS V14.01,2013-08-26 22:10:00,
2013-08-26 18:15:00,71.8,67.7,29.86,SSE,165,1.0,8.0,87,0.00,,,0.00,VWS V14.01,2013-08-26 22:15:00,
2013-08-26 18:20:00,71.9,67.5,29.86,East,97,3.0,8.0,86,0.00,,,0.00,VWS V14.01,2013-08-26 22:20:00,
2013-08-26 18:25:00,71.9,67.5,29.86,SSE,162,2.0,8.0,86,0.00,,,0.00,VWS V14.01,2013-08-26 22:25:00,
2013-08-26 18:30:00,71.9,67.2,29.86,SSW,196,2.0,8.0,85,0.00,,,0.00,VWS V14.01,2013-08-26 22:30:00,
2013-08-26 18:35:00,72.0,67.6,29.86,ESE,117,0.0,6.0,86,0.00,,,0.00,VWS V14.01,2013-08-26 22:35:00,
2013-08-26 18:40:00,71.9,67.5,29.86,SW,225,6.0,8.0,86,0.00,,,0.00,VWS V14.01,2013-08-26 22:40:00,
2013-08-26 18:45:00,71.7,67.3,29.86,SW,217,3.0,8.0,86,0.00,,,0.00,VWS V14.01,2013-08-26 22:45:00,
2013-08-26 18:50:00,71.6,67.2,29.86,South,186,0.0,8.0,86,0.00,,,0.00,VWS V14.01,2013-08-26 22:50:00,
2013-08-26 18:55:00,71.4,67.0,29.86,SSE,166,3.0,10.0,86,0.00,,,0.00,VWS V14.01,2013-08-26 22:55:00,
2013-08-26 19:00:00,71.3,67.2,29.86,SSE,156,3.0,10.0,87,0.00,,,0.00,VWS V14.01,2013-08-26 23:00:00,
2013-08-26 19:05:00,71.3,67.2,29.86,SW,227,1.0,4.0,87,0.00,,,0.00,VWS V14.01,2013-08-26 23:05:00,
2013-08-26 19:10:00,71.3,67.2,29.86,SSW,211,0.0,7.0,87,0.00,,,0.00,VWS V14.01,2013-08-26 23:10:00,
2013-08-26 19:15:00,71.3,67.2,29.86,South,186,0.0,8.0,87,0.00,,,0.00,VWS V14.01,2013-08-26 23:15:00,
2013-08-26 19:20:00,71.3,67.2,29.86,South,187,0.0,8.0,87,0.00,,,0.00,VWS V14.01,2013-08-26 23:20:00,
2013-08-26 19:25:00,71.4,67.3,29.86,SSE,157,5.0,8.0,87,0.00,,,0.00,VWS V14.01,2013-08-26 23:25:00,
2013-08-26 19:30:00,71.4,67.3,29.86,SW,225,0.0,8.0,87,0.00,,,0.00,VWS V14.01,2013-08-26 23:30:00,
2013-08-26 19:35:00,71.5,67.4,29.86,SW,221,1.0,5.0,87,0.00,,,0.00,VWS V14.01,2013-08-26 23:35:00,
2013-08-26 19:40:00,71.5,67.4,29.85,SW,234,1.0,5.0,87,0.00,,,0.00,VWS V14.01,2013-08-26 23:40:00,
2013-08-26 19:45:00,71.5,67.1,29.85,SW,228,1.0,7.0,86,0.00,,,0.00,VWS V14.01,2013-08-26 23:45:00,
2013-08-26 19:50:00,71.6,67.2,29.86,SSE,167,0.0,7.0,86,0.00,,,0.00,VWS V14.01,2013-08-26 23:50:00,
2013-08-26 19:55:00,71.6,66.9,29.86,South,178,1.0,7.0,85,0.00,,,0.00,VWS V14.01,2013-08-26 23:55:00,
2013-08-26 20:00:00,71.7,66.9,29.86,SSW,192,3.0,7.0,85,0.00,,,0.00,VWS V14.01,2013-08-27 00:00:00,
2013-08-26 20:05:00,71.7,66.9,29.85,SSE,168,1.0,4.0,85,0.00,,,0.00,VWS V14.01,2013-08-27 00:05:00,
2013-08-26 20:10:00,71.8,67.4,29.85,SSW,204,1.0,4.0,86,0.00,,,0.00,VWS V14.01,2013-08-27 00:10:00,
2013-08-26 20:15:00,71.7,67.6,29.85,SSW,203,0.0,4.0,87,0.00,,,0.00,VWS V14.01,2013-08-27 00:15:00,
2013-08-26 20:20:00,71.5,67.8,29.85,SSE,155,3.0,5.0,88,0.00,,,0.00,VWS V14.01,2013-08-27 00:20:00,
2013-08-26 20:25:00,71.4,68.0,29.85,SE,132,2.0,5.0,89,0.00,,,0.00,VWS V14.01,2013-08-27 00:25:00,
2013-08-26 20:30:00,71.2,67.8,29.85,SSE,151,2.0,5.0,89,0.00,,,0.00,VWS V14.01,2013-08-27 00:30:00,
2013-08-26 20:35:00,71.0,67.6,29.85,South,169,2.0,5.0,89,0.00,,,0.00,VWS V14.01,2013-08-27 00:35:00,
2013-08-26 20:40:00,71.0,67.6,29.86,South,169,2.0,5.0,89,0.00,,,0.00,VWS V14.01,2013-08-27 00:40:00,
2013-08-26 20:45:00,71.0,67.6,29.85,SSE,152,2.0,5.0,89,0.00,,,0.00,VWS V14.01,2013-08-27 00:45:00,
2013-08-26 20:50:00,71.0,67.6,29.85,SW,229,1.0,6.0,89,0.00,,,0.00,VWS V14.01,2013-08-27 00:50:00,
2013-08-26 20:55:00,71.0,67.6,29.85,SSE,167,1.0,6.0,89,0.00,,,0.00,VWS V14.01,2013-08-27 00:55:00,
2013-08-26 21:00:00,71.0,67.6,29.86,SSE,167,0.0,6.0,89,0.00,,,0.00,VWS V14.01,2013-08-27 01:00:00,
2013-08-26 21:05:00,71.0,67.6,29.86,SSE,167,0.0,2.0,89,0.00,,,0.00,VWS V14.01,2013-08-27 01:05:00,
2013-08-26 21:10:00,71.0,67.3,29.86,SSE,167,0.0,2.0,88,0.00,,,0.00,VWS V14.01,2013-08-27 01:10:00,
2013-08-26 21:15:00,71.1,67.4,29.86,SSE,167,0.0,2.0,88,0.00,,,0.00,VWS V14.01,2013-08-27 01:15:00,
2013-08-26 21:20:00,71.1,67.0,29.85,SSW,202,1.0,2.0,87,0.00,,,0.00,VWS V14.01,2013-08-27 01:20:00,
2013-08-26 21:25:00,71.2,67.1,29.85,SSW,202,0.0,3.0,87,0.00,,,0.00,VWS V14.01,2013-08-27 01:25:00,
2013-08-26 21:30:00,71.2,67.1,29.85,SW,230,2.0,4.0,87,0.00,,,0.00,VWS V14.01,2013-08-27 01:30:00,
2013-08-26 21:35:00,71.2,66.8,29.86,WSW,239,1.0,3.0,86,0.00,,,0.00,VWS V14.01,2013-08-27 01:35:00,
2013-08-26 21:40:00,71.2,66.8,29.85,SW,233,0.0,3.0,86,0.00,,,0.00,VWS V14.01,2013-08-27 01:40:00,
2013-08-26 21:45:00,71.1,66.7,29.85,SW,232,0.0,3.0,86,0.00,,,0.00,VWS V14.01,2013-08-27 01:45:00,
2013-08-26 21:50:00,71.1,66.7,29.86,WSW,240,0.0,3.0,86,0.00,,,0.00,VWS V14.01,2013-08-27 01:50:00,
2013-08-26 21:55:00,71.1,66.7,29.86,WSW,237,1.0,3.0,86,0.00,,,0.00,VWS V14.01,2013-08-27 01:55:00,
2013-08-26 22:00:00,71.1,67.0,29.86,SW,235,1.0,4.0,87,0.00,,,0.00,VWS V14.01,2013-08-27 02:00:00,
2013-08-26 22:05:00,71.0,66.9,29.85,SW,223,0.0,3.0,87,0.00,,,0.00,VWS V14.01,2013-08-27 02:05:00,
2013-08-26 22:10:00,71.0,66.9,29.85,SSW,210,0.0,4.0,87,0.00,,,0.00,VWS V14.01,2013-08-27 02:10:00,
2013-08-26 22:15:00,71.0,66.9,29.85,SSW,210,2.0,4.0,87,0.00,,,0.00,VWS V14.01,2013-08-27 02:15:00,
2013-08-26 22:20:00,71.0,66.9,29.85,SSW,210,0.0,4.0,87,0.00,,,0.00,VWS V14.01,2013-08-27 02:20:00,
2013-08-26 22:25:00,71.0,66.9,29.85,SSW,210,1.0,4.0,87,0.00,,,0.00,VWS V14.01,2013-08-27 02:25:00,
2013-08-26 22:30:00,71.0,66.9,29.85,SW,219,1.0,4.0,87,0.00,,,0.00,VWS V14.01,2013-08-27 02:30:00,
2013-08-26 22:35:00,71.0,66.9,29.85,SW,219,0.0,1.0,87,0.00,,,0.00,VWS V14.01,2013-08-27 02:35:00,
2013-08-26 22:40:00,71.0,66.9,29.85,SW,219,0.0,1.0,87,0.00,,,0.00,VWS V14.01,2013-08-27 02:40:00,
2013-08-26 22:45:00,71.0,66.9,29.85,SW,219,0.0,3.0,87,0.00,,,0.00,VWS V14.01,2013-08-27 02:45:00,
2013-08-26 22:50:00,71.0,66.9,29.85,SW,219,0.0,3.0,87,0.00,,,0.00,VWS V14.01,2013-08-27 02:50:00,
2013-08-26 22:55:00,71.0,66.9,29.84,SW,218,0.0,4.0,87,0.00,,,0.00,VWS V14.01,2013-08-27 02:55:00,
2013-08-26 23:00:00,71.0,66.9,29.84,SW,218,0.0,4.0,87,0.00,,,0.00,VWS V14.01,2013-08-27 03:00:00,
2013-08-26 23:05:00,71.0,66.9,29.84,SW,218,2.0,3.0,87,0.00,,,0.00,VWS V14.01,2013-08-27 03:05:00,
2013-08-26 23:10:00,71.0,66.9,29.84,SW,218,0.0,3.0,87,0.00,,,0.00,VWS V14.01,2013-08-27 03:10:00,
2013-08-26 23:15:00,71.0,66.9,29.84,SW,225,1.0,3.0,87,0.00,,,0.00,VWS V14.01,2013-08-27 03:15:00,
2013-08-26 23:20:00,71.0,66.9,29.84,SW,225,0.0,3.0,87,0.00,,,0.00,VWS V14.01,2013-08-27 03:20:00,
2013-08-26 23:25:00,71.0,67.3,29.84,SW,225,0.0,3.0,88,0.00,,,0.00,VWS V14.01,2013-08-27 03:25:00,
2013-08-26 23:30:00,71.0,67.3,29.84,SW,225,0.0,3.0,88,0.00,,,0.00,VWS V14.01,2013-08-27 03:30:00,
2013-08-26 23:35:00,71.0,67.3,29.84,SW,225,0.0,3.0,88,0.00,,,0.00,VWS V14.01,2013-08-27 03:35:00,
2013-08-26 23:40:00,71.0,67.3,29.84,SW,225,1.0,3.0,88,0.00,,,0.00,VWS V14.01,2013-08-27 03:40:00,
2013-08-26 23:45:00,71.0,67.3,29.84,SW,225,0.0,3.0,88,0.00,,,0.00,VWS V14.01,2013-08-27 03:45:00,
2013-08-26 23:50:00,71.0,67.3,29.84,SW,233,0.0,4.0,88,0.00,,,0.00,VWS V14.01,2013-08-27 03:50:00,
2013-08-26 23:55:00,71.0,67.6,29.84,SW,233,1.0,4.0,89,0.00,,,0.00,VWS V14.01,2013-08-27 03:55:00,